Regional Weather Roundup
Issued by NWS Green Bay, WI

Home | Current Version | Previous Version | Graphics & Text | Print | Product List | Glossary Off
Versions: 1 2 3 4 5 6 7 8 9 10 11 12 13 14 15 16 17 18 19 20 21 22 23 24 25 26 27 28 29 30 31 32 33 34 35 36 37 38 39 40 41 42 43 44 45 46 47 48 49 50

197
ASUS43 KGRB 020800
RWRGRB

NORTH-CENTRAL AND NORTHEAST WISCONSIN REGIONAL WEATHER ROUNDUP
NATIONAL WEATHER SERVICE GREEN BAY WI
300 AM CDT MON MAY 02 2016

WIZ005-009-010>012-018-019-020900-
NORTH CENTRAL WISCONSIN

CITY           SKY/WX    TMP DP  RH WIND       PRES   REMARKS
IRONWOOD         N/A     30  28  93 CALM      30.10S
MANITOWISH WTR NOT AVBL
ARBOR VITAE    NOT AVBL
EAGLE RIVER    NOT AVBL
LAND O LAKES   NOT AVBL
RHINELANDER    CLEAR     34  28  79 CALM      30.12S
PHILLIPS       CLEAR     33  32  94 CALM      30.11S
ANTIGO         NOT AVBL
TOMAHAWK       NOT AVBL
MERRILL        CLEAR     32  32  98 CALM      30.13R
$$

WIZ013-073-020900-
NORTHEAST WISCONSIN

CITY           SKY/WX    TMP DP  RH WIND       PRES   REMARKS
IRON MOUNTAIN  CLEAR     30  24  78 CALM      30.09S
MARINETTE      CLEAR     39  30  70 CALM      30.10R
$$

WIZ017-030-035>037-045-020900-
CENTRAL WISCONSIN

CITY           SKY/WX    TMP DP  RH WIND       PRES   REMARKS
MEDFORD        NOT AVBL
WAUSAU         PTCLDY    41  35  79 N3        30.10S
MOSINEE        NOT AVBL
MARSHFIELD     CLEAR     40  33  76 CALM      30.11R
WISC RAPIDS    PTCLDY    38  32  79 CALM      30.12S
STEVENS POINT  NOT AVBL
WAUPACA        CLEAR     40  35  84 N3        30.11S
SHAWANO        CLEAR     41  34  76 N3        30.11S
CLINTONVILLE   NOT AVBL
WAUTOMA        CLEAR     34  33  96 CALM      30.12R
$$

WIZ038-039-048-051-020900-
FOX VALLEY

CITY           SKY/WX    TMP DP  RH WIND       PRES   REMARKS
NWS GREEN BAY  CLEAR     40  35  83 N7        30.10S
APPLETON       NOT AVBL
OSHKOSH        CLEAR     41  37  86 N3        30.09S
FOND DU LAC    PTCLDY    42  37  82 NW5       30.08S
$$

WIZ022-050-052-020900-
EAST CENTRAL WISCONSIN

CITY           SKY/WX    TMP DP  RH WIND       PRES   REMARKS
EPHRAIM        NOT AVBL
STURGEON BAY   CLEAR     41  34  75 N8        30.11S
MANITOWOC      NOT AVBL
SHEBOYGAN      PTCLDY    42  35  76 N5        30.08S
$$

LMZ563-521-522-541>543-020900-
LAKESHORE

STATION/POSITION TIME  TEMP    WIND        PRES    VSBY  WAVE
                       AIR SEA DIR/SP/G                  HT/PER
                 (UTC) (F)     (DEG/KT/KT) (MB)    (MI)  (FT/S)
SHEBOYGAN LKSHOR 0700   43      10/ 10/ 11 1019.2R
KEWAUNEE LKSHORE 0700   44     340/  4/  6 1018.1R
NORTHPORT PIER   0700   42     330/  8/ 11 1019.0S
N MID LAKE BUOY  0650   40 38  320/  8/  8 1018.6F         1
CHAMBERS ISLAND  0700   42     330/  5/  5 1019.3S
MENOMINEE LKSHOR 0700   44     340/  8/  9 1018.0F
$$




USA.gov is the U.S. government's official web portal to all federal, state and local government web resources and services.